Weather reports worldwide

Advertisment
Brize Norton, United Kingdom (3649): temperature & dewpoint: 18.11.2020 14:00:00 - 24.11.2020 14:00:00 (GMT)Brize Norton, United Kingdom (3649): temperature -20cm & temperature -100cm: 18.11.2020 14:00:00 - 24.11.2020 14:00:00 (GMT)Brize Norton, United Kingdom (3649): wind speed & gusts: 18.11.2020 14:00:00 - 24.11.2020 14:00:00 (GMT)Brize Norton, United Kingdom (3649): wind direction: 18.11.2020 14:00:00 - 24.11.2020 14:00:00 (GMT)Brize Norton, United Kingdom (3649): reduced air pressure: 18.11.2020 14:00:00 - 24.11.2020 14:00:00 (GMT)Brize Norton, United Kingdom (3649): visibility: 18.11.2020 14:00:00 - 24.11.2020 14:00:00 (GMT)Brize Norton, United Kingdom (3649): sunshine duration: 18.11.2020 14:00:00 - 24.11.2020 14:00:00 (GMT)Brize Norton, United Kingdom (3649): precipitation: 18.11.2020 14:00:00 - 24.11.2020 14:00:00 (GMT)
Date & Time tt [°C] td [°C] tt -20cm [°C] tt -100cm [°C] ff [km/h] ff [kn] fx [km/h] fx [kn] dd ppp [hPa] vv [km] sd [min] rr [mm]
24.11.2020 14:00:00 10,5 6,8 - - 13 7 - - SSE 1013,5 10 12 0,0
24.11.2020 13:00:00 11,0 6,8 - - 16 9 - - S 1014,7 10 48 0,0
24.11.2020 12:00:00 11,0 7,1 - - 18 10 - - S 1015,7 10 30 0,0
24.11.2020 11:00:00 10,8 7,3 - - 13 7 - - S 1016,6 10 0 0,0
24.11.2020 10:00:00 10,1 7,1 - - 15 8 - - SSW 1017,2 10 0 0,0
24.11.2020 09:00:00 10,0 7,6 9,7 11,7 15 8 - - S 1017,8 10 0 0,0
24.11.2020 08:00:00 10,0 7,4 - - 15 8 - - S 1017,7 10 0 0,0
24.11.2020 07:00:00 9,9 7,4 - - 11 6 - - SSW 1017,8 10 0 0,0
24.11.2020 06:00:00 10,2 7,8 - - 13 7 - - SSW 1018,5 10 0 0,0
24.11.2020 05:00:00 10,2 8,0 - - 18 10 - - SSW 1018,6 10 0 0,0
24.11.2020 04:00:00 10,1 8,2 - - 16 9 - - SSW 1019,5 10 0 0,0
24.11.2020 03:00:00 10,2 7,9 - - 18 10 - - SSW 1020,0 40 0 0,0
24.11.2020 02:00:00 10,7 7,6 - - 15 8 - - SSW 1020,8 10 0 0,0
24.11.2020 01:00:00 10,4 7,1 - - 9 5 - - SSW 1021,4 10 0 0,0
24.11.2020 00:00:00 10,5 7,4 - - 15 8 - - SW 1022,2 10 - 0,0
23.11.2020 23:00:00 10,0 7,8 - - 13 7 - - SSW 1022,6 10 0 0,0
23.11.2020 22:00:00 9,3 7,8 - - 8 4 - - SW 1023,1 25 0 0,0
23.11.2020 21:00:00 8,1 7,1 - - 9 5 - - SW 1023,5 10 0 0,0
23.11.2020 20:00:00 7,7 6,5 - - 9 5 - - SSW 1023,7 10 0 0,0
23.11.2020 19:00:00 7,9 6,5 - - 9 5 - - SSW 1024,2 10 0 0,0
23.11.2020 18:00:00 8,4 6,6 - - 13 7 - - SSW 1024,2 10 0 0,0
23.11.2020 17:00:00 8,7 6,3 - - 11 6 - - S 1024,8 10 0 0,0
23.11.2020 16:00:00 8,9 5,9 - - 11 6 - - S 1024,8 10 6 0,0
23.11.2020 15:00:00 10,6 6,2 - - 9 5 - - SSW 1025,1 10 30 0,0
23.11.2020 14:00:00 9,6 6,9 - - 8 4 - - SSW 1025,6 10 6 0,0
23.11.2020 13:00:00 8,1 6,4 - - 2 1 - - ESE 1026,5 10 0 0,0
23.11.2020 12:00:00 6,2 5,9 - - 5 3 - - WNW 1027,2 8 0 0,0
23.11.2020 11:00:00 3,4 3,3 - - 2 1 - - SE 1028,1 2,5 6 0,0
23.11.2020 10:00:00 1,9 1,7 - - 2 1 - - ENE 1028,3 0,5 0 0,2
23.11.2020 09:00:00 0,9 0,7 10,0 11,7 4 2 - - SSE 1028,3 0,5 0 0,0
23.11.2020 08:00:00 0,5 0,3 - - 2 1 - - NW 1028,2 0,2 0 0,0
23.11.2020 07:00:00 0,2 -0,2 - - 0 0 - - N 1028,0 0,3 0 0,0
23.11.2020 06:00:00 0,4 0,1 - - 2 1 - - ENE 1027,8 0,3 0 0,0
23.11.2020 05:00:00 0,8 0,4 - - 2 1 - - NNW 1027,9 0,2 0 0,0
23.11.2020 04:00:00 0,5 -0,2 - - 4 2 - - SW 1028,0 0,3 0 0,0
23.11.2020 03:00:00 0,7 0,2 - - 5 3 - - W 1028,1 20 0 0,0
23.11.2020 02:00:00 0,7 0,1 - - 2 1 - - W 1028,2 10 0 0,0
23.11.2020 01:00:00 0,9 0,3 - - 4 2 - - W 1028,5 10 0 0,0
23.11.2020 00:00:00 0,7 -0,2 - - 2 1 - - S 1028,4 10 - 0,0
22.11.2020 23:00:00 1,4 -0,2 - - 4 2 - - SW 1028,1 10 0 0,0
22.11.2020 22:00:00 3,2 2,2 - - 5 3 - - W 1028,1 10 0 0,0
22.11.2020 21:00:00 3,4 2,0 - - 4 2 - - W 1028,0 10 0 0,0
22.11.2020 20:00:00 4,4 3,4 - - 5 3 - - W 1027,8 10 0 0,0
22.11.2020 19:00:00 3,6 2,0 - - 2 1 - - NNW 1027,6 10 0 0,0
22.11.2020 18:00:00 5,5 3,2 - - 4 2 - - SW 1027,1 30 0 0,0
22.11.2020 17:00:00 7,2 3,2 - - 5 3 - - W 1026,8 10 0 0,0
22.11.2020 16:00:00 8,5 3,3 - - 5 3 - - W 1026,7 10 12 0,0
22.11.2020 15:00:00 9,8 3,5 - - 11 6 - - W 1026,4 10 54 0,0
22.11.2020 14:00:00 10,1 3,3 - - 13 7 - - W 1026,4 10 42 0,0
22.11.2020 13:00:00 10,8 4,7 - - 9 5 - - W 1026,7 10 60 0,0
22.11.2020 12:00:00 10,3 6,1 - - 8 4 - - W 1027,4 10 48 0,0
22.11.2020 11:00:00 8,5 6,5 - - 4 2 - - W 1027,7 10 6 0,0
22.11.2020 10:00:00 7,0 6,7 - - 5 3 - - W 1027,5 10 6 0,0
22.11.2020 09:00:00 4,8 4,4 10,7 11,7 2 1 - - NNW 1027,4 10 0 0,0
22.11.2020 08:00:00 5,8 5,3 - - 4 2 - - W 1026,8 3,5 0 0,2
22.11.2020 07:00:00 6,4 5,8 - - 4 2 - - W 1026,4 10 0 0,0
22.11.2020 06:00:00 7,2 6,7 - - 8 4 - - W 1026,0 10 0 0,0
22.11.2020 05:00:00 7,8 7,3 - - 5 3 - - W 1025,8 0,4 0 0,0
22.11.2020 04:00:00 8,4 7,1 - - 4 2 - - WSW 1025,5 10 0 0,0
22.11.2020 03:00:00 9,2 8,1 - - 5 3 - - WSW 1025,2 10 0 0,0
22.11.2020 02:00:00 9,8 8,6 - - 5 3 - - WSW 1024,9 10 0 0,4
22.11.2020 01:00:00 10,4 9,7 - - 11 6 - - W 1024,5 3,7 0 0,0
22.11.2020 00:00:00 10,3 9,4 - - 15 8 - - WSW 1024,2 5 - 0,0
21.11.2020 23:00:00 10,6 8,9 - - 13 7 - - WSW 1024,2 10 0 0,0
21.11.2020 22:00:00 10,8 8,7 - - 9 5 - - SW 1024,6 10 0 0,0
21.11.2020 21:00:00 10,9 8,6 - - 11 6 - - SW 1024,6 10 0 0,0
21.11.2020 20:00:00 10,9 8,5 - - 9 5 - - SW 1024,9 10 0 0,0
21.11.2020 19:00:00 10,7 8,5 - - 11 6 - - SW 1024,8 25 0 0,0
21.11.2020 18:00:00 10,8 8,9 - - 11 6 - - SW 1024,9 10 0 0,0
21.11.2020 17:00:00 11,0 8,6 - - 11 6 - - SW 1024,8 10 0 0,0
21.11.2020 16:00:00 11,1 8,5 - - 13 7 - - SW 1024,8 10 0 0,0
21.11.2020 15:00:00 10,8 8,6 - - 15 8 - - SW 1025,0 10 0 0,0
21.11.2020 14:00:00 10,7 8,6 - - 15 8 - - SW 1025,1 10 0 0,0
21.11.2020 13:00:00 11,0 8,2 - - 16 9 - - WSW 1025,4 10 0 0,0
21.11.2020 12:00:00 11,1 7,9 - - 16 9 - - WSW 1025,8 20 0 0,0
21.11.2020 11:00:00 11,0 7,3 - - 15 8 - - WSW 1026,4 10 0 0,0
21.11.2020 10:00:00 10,8 7,0 - - 15 8 - - SW 1026,1 25 0 0,0
21.11.2020 09:00:00 10,3 7,0 10,4 11,9 15 8 - - SW 1026,1 10 0 0,0
21.11.2020 08:00:00 9,9 7,2 - - 11 6 - - SW 1026,2 10 0 0,0
21.11.2020 07:00:00 9,6 7,8 - - 13 7 - - SW 1026,1 10 0 0,0
21.11.2020 06:00:00 9,3 8,2 - - 16 9 - - SW 1026,2 10 0 0,2
21.11.2020 05:00:00 9,2 8,1 - - 11 6 - - SW 1026,1 10 0 0,0
21.11.2020 04:00:00 9,6 7,6 - - 11 6 - - SW 1026,4 10 0 0,0
21.11.2020 03:00:00 9,7 7,4 - - 15 8 - - WSW 1026,7 10 0 0,0
21.11.2020 02:00:00 9,8 7,3 - - 15 8 - - SW 1026,5 10 0 0,0
21.11.2020 01:00:00 9,8 7,5 - - 15 8 - - SW 1027,2 10 0 0,0
21.11.2020 00:00:00 9,6 7,7 - - 13 7 - - SW 1027,8 10 - 0,0
20.11.2020 23:00:00 10,2 8,9 - - 13 7 - - SW 1028,1 10 0 0,2
20.11.2020 22:00:00 10,0 9,3 - - 13 7 - - SW 1027,9 6 0 0,0
20.11.2020 21:00:00 10,0 9,4 - - 13 7 - - WSW 1028,7 4,0 0 0,0
20.11.2020 20:00:00 9,9 9,0 - - 11 6 - - SW 1029,0 10 0 0,0
20.11.2020 19:00:00 10,0 8,7 - - 11 6 - - SW 1029,3 8 0 0,0
20.11.2020 18:00:00 10,0 8,4 - - 13 7 - - SW 1029,5 10 0 0,0
20.11.2020 17:00:00 9,8 8,2 - - 11 6 - - SW 1029,7 10 0 0,0
20.11.2020 16:00:00 9,5 8,1 - - 15 8 - - SSW 1029,7 10 0 0,2
20.11.2020 15:00:00 9,1 8,1 - - 13 7 - - SSW 1030,3 10 0 0,4
20.11.2020 14:00:00 9,0 8,0 - - 11 6 - - SSW 1030,8 8 0 0,6
20.11.2020 13:00:00 8,7 7,4 - - 13 7 - - SSW 1031,6 12 0 0,2
20.11.2020 12:00:00 9,1 7,1 - - 13 7 - - SW 1032,3 10 0 0,0
20.11.2020 11:00:00 7,8 6,4 - - 11 6 - - SSW 1032,9 10 0 0,0
20.11.2020 10:00:00 5,0 4,1 - - 2 1 - - ENE 1033,5 10 0 0,8
20.11.2020 09:00:00 3,7 2,7 10,5 12,0 2 1 - - ESE 1033,7 10 0 0,0
20.11.2020 08:00:00 2,3 1,7 - - 0 0 - - N 1034,0 10 0 0,0
20.11.2020 07:00:00 1,8 1,3 - - 2 1 - - E 1034,2 5 0 0,0
20.11.2020 06:00:00 1,0 0,4 - - 2 1 - - SE 1034,4 6 0 0,0
20.11.2020 05:00:00 1,5 0,8 - - 2 1 - - N 1034,7 10 0 0,0
20.11.2020 04:00:00 1,6 0,8 - - 0 0 - - N 1035,1 10 0 0,0
20.11.2020 03:00:00 1,6 0,8 - - 4 2 - - W 1035,2 10 0 0,0
20.11.2020 02:00:00 1,6 0,6 - - 0 0 - - N 1035,8 10 0 0,0
20.11.2020 01:00:00 1,9 0,8 - - 4 2 - - WSW 1036,2 16 0 0,0
20.11.2020 00:00:00 2,2 0,9 - - 5 3 - - W 1036,1 10 - 0,0
19.11.2020 23:00:00 3,1 1,3 - - 5 3 - - WSW 1036,0 10 0 0,0
19.11.2020 22:00:00 2,9 0,8 - - 5 3 - - W 1036,6 10 0 0,0
19.11.2020 21:00:00 3,5 1,3 - - 5 3 - - WSW 1035,8 30 0 0,0
19.11.2020 20:00:00 4,5 1,5 - - 8 4 - - W 1034,9 10 0 0,0
19.11.2020 19:00:00 4,2 1,3 - - 5 3 - - WNW 1034,2 10 0 0,0
19.11.2020 18:00:00 5,5 1,3 - - 8 4 - - W 1033,7 10 0 0,0
19.11.2020 17:00:00 6,8 2,0 - - 9 5 - - WNW 1033,4 10 0 0,0
19.11.2020 16:00:00 8,0 2,4 - - 15 8 - - WNW 1032,7 10 6 0,0
19.11.2020 15:00:00 7,9 3,0 - - 11 6 - - NW 1031,1 10 42 0,0
19.11.2020 14:00:00 7,0 3,1 - - 22 12 - - N 1030,6 10 24 0,2
19.11.2020 13:00:00 9,5 3,2 - - 21 11 - - NNW 1030,6 10 60 0,0
19.11.2020 12:00:00 8,7 3,7 - - 24 13 - - NNW 1029,3 10 48 0,0
19.11.2020 11:00:00 9,4 3,9 - - 29 16 52 28 NW 1026,6 10 18 0,0
19.11.2020 10:00:00 9,4 4,0 - - 24 13 46 25 WNW 1024,9 10 6 0,0
19.11.2020 09:00:00 9,3 3,9 11,2 12,0 16 9 - - WNW 1023,5 10 0 0,0
19.11.2020 08:00:00 9,3 4,9 - - 21 11 - - W 1021,9 10 0 0,0
19.11.2020 07:00:00 9,2 3,9 - - 21 11 - - W 1020,2 10 0 0,0
19.11.2020 06:00:00 9,0 3,4 - - 18 10 - - W 1019,2 10 0 0,0
19.11.2020 05:00:00 9,2 3,2 - - 21 11 - - W 1018,7 10 0 0,0
19.11.2020 04:00:00 8,8 3,4 - - 21 11 - - W 1017,8 10 0 0,0
19.11.2020 03:00:00 9,0 3,7 - - 18 10 50 27 W 1017,0 10 0 0,0
19.11.2020 02:00:00 9,0 4,6 - - 22 12 - - W 1016,4 10 0 0,0
19.11.2020 01:00:00 9,4 4,8 - - 21 11 - - WSW 1015,7 20 0 0,0
19.11.2020 00:00:00 8,1 4,3 - - 13 7 - - SW 1016,2 10 - 0,0
18.11.2020 23:00:00 7,5 3,7 - - 13 7 - - SW 1016,5 10 0 0,0
18.11.2020 22:00:00 7,8 3,7 - - 9 5 - - SW 1016,5 10 0 0,0
18.11.2020 21:00:00 7,7 3,2 - - 9 5 - - SW 1015,9 10 0 0,0
18.11.2020 20:00:00 7,8 3,2 - - 13 7 - - WSW 1015,8 10 0 0,0
18.11.2020 19:00:00 8,4 3,0 - - 15 8 - - WSW 1015,3 10 0 0,0
18.11.2020 18:00:00 9,2 5,3 - - 18 10 - - WSW 1014,5 10 0 0,0
18.11.2020 17:00:00 10,7 5,7 - - 22 12 - - WSW 1013,3 10 0 0,0
18.11.2020 16:00:00 11,7 8,9 - - 18 10 52 28 WSW 1012,0 10 0 0,0
18.11.2020 15:00:00 14,2 12,9 - - 18 10 - - SW 1010,4 5 0 0,0
18.11.2020 14:00:00 13,8 11,9 - - 21 11 - - SSW 1010,5 10 0 0,0

tt = temperature
td = dewpoint
tt -20cm = temperature -20cm
tt -100cm = temperature -100cm
ff = wind speed
fx = gusts
dd = wind direction
ppp = reduced air pressure
vv = visibility
sd = sunshine duration
rr = precipitation

Next stations